Location: Unspecified
(0.0000°N, 0.0000°E)
Time: 04:49:39
(UTC+00:00)

A-11 Canister half - Pass Details

Date: 23 April 2026
Orbit: 1523 x 1685 km, 47.3° (Epoch: 13 May)

Event Time Altitude Azimuth Distance (km) Brightness Sun altitude
Rises 06:23:37 0° 339° (NNW) 4,898 11.6 6.2°
Reaches altitude 10° 06:27:20 10° 349° (N) 3,895 11.2 7.1°
Maximum altitude 06:35:49 32° 48° (NE) 2,531 11.2 9.1°
Drops below altitude 10° 06:44:03 10° 107° (ESE) 3,796 12.3 11.1°
Sets 06:47:34 0° 117° (ESE) 4,759 12.4 12.0°
